PEGASUS DEB, 39321

Orbit data source: Space-Track

PEGASUS DEB, 39321 is space debris in LEO originally from a launch on Thu, 19 May 1994 UTC launched from the Air Force Western Test Range (AFWTR). Debris objects in space refer to the collection of defunct objects orbiting the Earth. Examples of debris include non-operational satellites, rocket bodies, and fragments generated from explosions, collisions, or faulty payload assembly.

Loading next visibility...
Identifier
39321, 1994-029AFG
Orbit
LEO
Country
Flag of USUS
Related business
Manufacturer
Unknown
Mission
Spacecraft
Bus & Motor
Unknown
Mass
Unknown
Launch date (UTC)
1994-05-19 (32 years ago)
Launch vehicle
Unknown
Launch site
Air Force Western Test Range (AFWTR)
Object type
Payload
Rocket body
Debris
Shape & HBR
Unknown shape, 0.1 m
Radar Cross Section
Small (<0.1 m²)

Expand to show TLE details & history
Last TLE update: 5 hours ago

TLE from 5 hours ago
0 PEGASUS DEB
1 39321U 94029AFG 26178.14223625  .00000723  00000-0  23962-3 0  9998
2 39321  82.2881 144.0499 0433926 140.9228 222.4152 13.94220131655632
Epoch: 2026-06-27T03:24Z
TLE epoch observation values (Epoch: 2026-06-27T03:24:49.212Z)
Latitude
-0°
Longitude
177.58422°
Altitude
1,156.411 km
Speed
7.154 km/s
True Right ascension
09h 36m 11s
True Declination
0° 00' 00"
Sunlit
Object was in daylight at epoch
Visualization orbit readout
Latitude
Unknown
Longitude
Unknown
Altitude
Unknown
Speed
Unknown
Apparent Right ascension
Unknown
Apparent Declination
Unknown
Sunlit
N/A
Visualization observer readout
Local Sidereal Time
19:58:15
Azimuth
Unknown
Elevation
Unknown
Doppler factor
Unknown
Orbital elements
Apogee altitude
1,227.315 km
Perigee altitude
594.724 km
Semi-major axis
7,289.156 km
Eccentricity
0.04339
Inclination
82.2881°
RAAN
144.0499°
Arg. of periapsis
140.9228°
True anomaly
219.19232°
Mean anomaly
222.4152°
Eccentric anomaly
220.79095°
Mean motion
3.4876 °/min
Orbital period
103.22 mins
BSTAR
0.00023962
Loading maneuver chart data...
Computing Atmospheric mass density...

Documentation

Showing up to 5 results
|